Formations.

Quelques informations.

Fly & Fun et ses instructeurs disposent d’une école de pilotage, agréée par l’aviation civile (ATO FR 0147).

Rejoignez-nous afin de suivre le programme de formation, soit dans le cadre du cursus complet pour la délivrance d’une qualification de type, soit pour un module adapté de quelques heures d’instruction.

Notre équipe d’anciens pilotes militaires est là pour vous faire découvrir le monde de l’aviation de chasse.

Autres prestations.

Initiation.
Évènement client.
METAR :

LFQA 060030Z AUTO 12002KT CAVOK M02/M03 Q0998


vue en direct sur l'aérodrome
mentions légales politique de confidentialité
Cochet Concept
cx